Park Rapids, MN

5:00 PM CDT on April 26, 2017 (GMT -0500)
Park Rapids Municipal

Weather History for KPKD - September, 2013

Change the Weather History Date:

Sunday, September 22, 2013

  Actual Average Record
Temperature  
Mean Temperature 58 °F -  
Max Temperature 71 °F 62 °F 80 °F (1958)
Min Temperature 44 °F 39 °F 17 °F (1974)
Degree Days  
Heating Degree Days 8    
Growing Degree Days 8 (Base 50)    
Moisture  
Dew Point 47 °F    
Average Humidity 71    
Maximum Humidity 90    
Minimum Humidity 47    
Precipitation  
Precipitation 0.00 in - - ()
Sea Level Pressure  
Sea Level Pressure 29.86 in    
Wind  
Wind Speed 11 mph (SE)    
Max Wind Speed 23 mph    
Max Gust Speed 30 mph    
Visibility 10 miles    
Events      
Averages and records for this station are not official NWS values.
T = Trace of Precipitation, MM = Missing Value Source: NWS Daily Summary

Daily Weather History Graph

Daily Weather History Graph

Search for Another Location

Airport or City:

Trip Planner

Search our weather history database for the weather conditions in past years. The results will help you decide how hot, cold, wet, or windy it might be!

Date:

Astronomy

Sep. 22, 2013 Rise Set
Actual Time 7:07 AM CDT 7:17 PM CDT
Civil Twilight 6:37 AM CDT 7:47 PM CDT
Nautical Twilight 6:01 AM CDT 8:23 PM CDT
Astronomical Twilight 5:24 AM CDT 8:59 PM CDT
Moon 8:52 PM CDT (9/22) 10:43 AM CDT (9/22)
Length of Visible Light 13h 10m
Length of Day
12h 09m
Waning Gibbous, 88% of the Moon is Illuminated
Sep 22
Waning Gibbous
Sep 26
Last Quarter
Oct 4
New
Oct 11
First Quarter
Oct 18
Full

Hourly Weather History & Observations

Time (CDT) Temp. Windchill Dew Point Humidity Pressure Visibility Wind Dir Wind Speed Gust Speed Precip Events Conditions
12:53 AM 46.0 °F 43.9 °F 41.0 °F 83% 29.96 in 10.0 mi SE 4.6 mph - N/A   Clear
1:53 AM 46.0 °F 43.1 °F 41.0 °F 83% 29.95 in 10.0 mi ESE 5.8 mph - N/A   Clear
2:53 AM 45.0 °F 41.8 °F 41.0 °F 86% 29.93 in 10.0 mi ESE 5.8 mph - N/A   Clear
3:53 AM 45.0 °F 41.8 °F 42.1 °F 90% 29.93 in 10.0 mi ESE 5.8 mph - N/A   Clear
4:53 AM 45.0 °F 41.8 °F 42.1 °F 90% 29.94 in 10.0 mi SE 5.8 mph - N/A   Clear
5:53 AM 45.0 °F 39.3 °F 42.1 °F 90% 29.93 in 10.0 mi SE 11.5 mph - N/A   Clear
6:53 AM 44.1 °F 39.0 °F 41.0 °F 89% 29.93 in 10.0 mi ESE 9.2 mph - N/A   Clear
7:53 AM 46.0 °F 41.0 °F 42.1 °F 86% 29.91 in 10.0 mi SE 10.4 mph - N/A   Clear
8:53 AM 48.9 °F - 44.1 °F 83% 29.91 in 10.0 mi SE 13.8 mph - N/A   Clear
9:53 AM 54.0 °F - 45.0 °F 72% 29.90 in 10.0 mi SE 18.4 mph - N/A   Clear
10:53 AM 57.9 °F - 45.0 °F 62% 29.88 in 10.0 mi SE 19.6 mph 27.6 mph N/A   Clear
11:53 AM 62.1 °F - 46.0 °F 56% 29.86 in 10.0 mi SE 19.6 mph 28.8 mph N/A   Clear
12:53 PM 66.0 °F - 46.9 °F 50% 29.84 in 10.0 mi SE 18.4 mph 28.8 mph N/A   Clear
1:53 PM 69.1 °F - 48.9 °F 49% 29.81 in 10.0 mi SSE 23.0 mph 28.8 mph N/A   Clear
2:53 PM 71.1 °F - 50.0 °F 47% 29.80 in 10.0 mi SE 20.7 mph 29.9 mph N/A   Clear
3:53 PM 71.1 °F - 51.1 °F 49% 29.78 in 10.0 mi SE 18.4 mph 25.3 mph N/A   Clear
4:53 PM 71.1 °F - 52.0 °F 51% 29.78 in 10.0 mi SE 16.1 mph 28.8 mph N/A   Clear
5:53 PM 69.1 °F - 52.0 °F 54% 29.78 in 10.0 mi SE 18.4 mph 27.6 mph N/A   Clear
6:53 PM 66.0 °F - 53.1 °F 63% 29.78 in 10.0 mi SE 17.3 mph 26.5 mph N/A   Clear
7:53 PM 63.0 °F - 53.1 °F 70% 29.79 in 10.0 mi SE 16.1 mph - N/A   Clear
8:53 PM 61.0 °F - 53.1 °F 75% 29.79 in 10.0 mi SE 15.0 mph - N/A   Clear
9:53 PM 61.0 °F - 53.1 °F 75% 29.78 in 10.0 mi SE 15.0 mph - N/A   Clear
10:53 PM 59.0 °F - 53.1 °F 81% 29.79 in 10.0 mi SSE 17.3 mph 23.0 mph N/A   Clear
11:53 PM 59.0 °F - 53.1 °F 81% 29.78 in 10.0 mi SE 13.8 mph - N/A   Clear